#timestamp,LO_Frequency,Hit 
1504504815.7,286046999.1,N
1504504835.5,286046997.2,N
1504504855.4,286046995.5,N
1504504875.2,286046993.4,N
1504504895.0,286046995.9,N
1504504895.9,286046995.9,N
1504504915.8,286046992.3,N
1504504935.6,286046993.9,N
1504504955.4,286046996.1,N
1504504975.3,286046997.2,N
1504504995.1,286046997.6,N
1504505015.8,286046993.5,N
1504505035.7,286046993.7,N
1504505055.5,286046990.4,N
1504505075.3,286046994.1,N
1504505095.2,286046994.0,N
1504505115.0,286046995.9,N
1504505115.9,286046995.9,N
1504505135.8,286046993.4,N
1504505155.6,286046993.9,N
1504505175.4,286046995.7,N
1504505195.3,286046996.8,N
1504505215.1,286046996.5,N
1504505216.0,286046996.5,N
1504505235.8,286046995.6,N
1504505255.7,286046992.2,N
1504505275.5,286046992.8,N
1504505295.3,286046991.5,N
1504505315.2,286046989.7,N
1504505335.9,286046989.7,P
1504505355.7,286046994.3,N
1504505375.6,286046996.4,N
1504505395.4,286046996.3,N
1504505415.2,286046997.3,N
1504505435.1,286046996.8,N
1504505436.0,286046996.8,N
1504505455.8,286046997.6,N
1504505475.7,286047001.1,N
1504505495.5,286046999.4,N
1504505515.3,286046999.6,N
1504505535.2,286046995.5,N
1504505555.9,286046995.4,N
1504505575.7,286046997.6,N
1504505595.6,286046994.2,N
1504505615.4,286046992.9,N
1504505635.2,286046991.9,P
1504505655.1,286046999.2,N
1504505656.0,286046999.2,N
1504505675.8,286046995.5,N
1504505695.7,286046995.9,N
1504505715.5,286046994.6,N
1504505735.3,286046991.7,P
1504505755.2,286046996.9,N
1504505775.0,286047000.1,N
1504505775.9,286047000.1,N
1504505795.7,286047003.3,N
1504505815.6,286047003.6,N
1504505835.4,286047002.1,N
1504505855.2,286047002.7,N
1504505875.1,286047000.5,N
1504505876.0,286047000.5,N
1504505895.8,286047000.1,N
1504505915.6,286047004.4,N
1504505935.5,286047002.4,N
1504505955.3,286047003.6,N
1504505975.2,286047003.2,N
1504505995.9,286047004.0,N
1504506015.7,286047007.1,N
1504506035.6,286047006.7,N
1504506055.4,286047004.7,N
1504506075.2,286047003.4,N
1504506095.1,286047003.7,N
1504506096.0,286047003.7,N
1504506115.8,286047003.6,N
1504506135.6,286047007.2,N
1504506155.5,286047004.1,N
1504506175.3,286047004.6,N
1504506195.1,286047007.8,N
1504506215.9,286047008.0,N
1504506235.7,286047010.7,P
1504506255.6,286047005.2,N
1504506275.4,286047002.6,N
1504506295.2,286047000.6,N
1504506315.1,286047000.3,N
1504506316.0,286047000.3,N
1504506335.8,286046999.7,N
1504506355.6,286047006.0,N
1504506375.5,286047001.3,N
1504506395.3,286047002.2,N
1504506415.1,286047002.2,N
1504506435.9,286047002.1,N
1504506455.7,286047002.6,N
1504506475.5,286047001.3,N
1504506495.4,286047000.4,N
1504506515.2,286047000.1,N
1504506535.0,286047005.8,N
1504506536.0,286047005.8,N
1504506555.8,286047005.8,N
1504506575.6,286047002.1,N
1504506595.5,286046999.9,N
1504506615.3,286046999.9,N
1504506635.1,286047000.3,N
1504506655.9,286047002.4,N
1504506675.7,286047004.2,N
1504506695.5,286047004.0,N
1504506715.4,286047003.2,N
1504506735.2,286047003.9,N
1504506755.0,286046999.9,N
1504506755.9,286046999.9,N
1504506775.8,286046998.5,N
1504506795.6,286047000.6,N
1504506815.4,286046999.9,N
1504506835.3,286047006.0,N
1504506855.1,286047006.9,P
1504506875.8,286047005.8,N
1504506895.7,286047007.0,P
1504506915.5,286047007.3,P
1504506935.4,286047003.1,P
1504506955.2,286047001.1,N
1504506975.0,286046999.5,N
1504506975.9,286046999.5,N
1504506995.8,286046996.0,N
1504507015.6,286046993.4,N
1504507035.4,286046993.3,N
1504507055.3,286046994.2,N
1504507075.1,286046992.6,N
1504507095.8,286046990.5,N
1504507115.7,286046991.8,N
1504507135.5,286046994.4,N
1504507155.3,286046991.7,N
1504507175.2,286046993.5,N
1504507195.0,286046994.4,N
1504507195.9,286046994.4,N
1504507215.8,286046991.8,N
1504507235.6,286046995.8,N
1504507255.4,286046996.6,N
1504507275.3,286046999.4,N
1504507295.1,286046998.0,N
1504507296.0,286046998.0,N
1504507315.8,286046991.9,N
1504507335.7,286046993.5,N
1504507355.5,286046997.6,N
1504507375.3,286046998.0,N
1504507395.2,286046997.1,N
1504507415.9,286046997.2,N
1504507435.7,286046995.1,N
1504507455.6,286046995.6,N
1504507475.4,286046994.8,N
1504507495.2,286046992.0,N
1504507515.1,286046994.4,N
1504507516.0,286046994.4,N
1504507535.8,286046991.7,P
1504507555.7,286046996.8,N
1504507575.5,286046999.2,N
1504507595.3,286046998.2,N
1504507615.2,286047000.2,N
1504507635.9,286047002.7,N
1504507655.7,286046999.5,N
1504507675.6,286046997.8,N
1504507695.4,286046997.7,N
1504507715.2,286047000.5,N
1504507735.1,286047004.0,N
1504507736.0,286047004.0,N
1504507755.8,286047001.4,N
1504507775.6,286047005.8,N
1504507795.5,286047004.5,N
1504507815.3,286047001.8,N
1504507835.1,286047002.6,N
1504507855.9,286046999.8,N
1504507875.7,286047002.3,N
1504507895.5,286047001.6,N
1504507915.4,286047001.8,N
1504507935.2,286047004.0,N
1504507955.0,286047002.5,N
1504507955.9,286047002.5,N
1504507975.8,286047001.6,N
1504507995.6,286047004.2,N
1504508015.5,286047001.8,N
1504508035.3,286047001.5,N
1504508055.1,286047000.3,N
1504508075.9,286047004.3,N
1504508095.7,286047001.5,N
1504508115.5,286047004.2,N
1504508135.4,286046999.9,N
1504508155.2,286046998.2,N
1504508175.0,286047002.7,N
1504508175.9,286047002.7,N
1504508195.8,286047001.5,N
1504508215.6,286047000.0,N
1504508235.4,286046998.3,N
1504508255.3,286046998.2,N
1504508275.1,286047002.2,N
1504508295.8,286046999.7,N
1504508315.7,286046998.9,N
1504508335.5,286046997.2,N
1504508355.3,286046999.4,N
1504508375.2,286046999.1,N
1504508395.0,286046997.0,N
1504508395.9,286046997.0,N
